Regional Weather Roundup
Issued by NWS Cleveland, OH

Home | Current Version | Previous Version | Text Only | Print | Product List | Glossary Off
Versions: 1 2 3 4 5 6 7 8 9 10 11 12 13 14 15 16 17 18 19 20 21 22 23 24 25 26 27 28 29 30 31 32 33 34 35 36 37 38 39 40 41 42 43 44 45 46 47 48 49 50

000
ASUS41 KCLE 160110
RWRCLE
OHIO REGIONAL WEATHER ROUNDUP
NATIONAL WEATHER SERVICE CLEVELAND, OH
900 PM EDT TUE APR 15 2014

NOTE: "FAIR" INDICATES FEW OR NO CLOUDS BELOW 12,000 FEET WITH NO
SIGNIFICANT WEATHER AND/OR OBSTRUCTIONS TO VISIBILITY.

OHZ001>008-015>018-024>027-034-035-043-044-160200-
   NORTHWEST OHIO

CITY           SKY/WX    TMP DP  RH WIND       PRES   REMARKS
DEFIANCE       CLEAR     31  10  41 NW8       30.21R WCI  23
FINDLAY        MOCLDY    30  15  53 W9        30.18R WCI  22
TOLEDO EXPRESS PTCLDY    30  13  49 NW9       30.18R WCI  22
TOLEDO EXEC    PTCLDY    31  13  47 NW13      30.19R WCI  21
LIMA           CLEAR     31  16  54 NW13      30.19R WCI  21
$$

OHZ009>014-019>023-028>033-038-089-160200-
   NORTHEAST OHIO

CITY           SKY/WX    TMP DP  RH WIND       PRES   REMARKS
CLE-HOPKINS    MOCLDY    32  18  56 W8        30.17R WCI  25
CLE-LAKEFRONT  CLOUDY    30  24  78 NW13      30.14R WCI  20
CUY CO. ARPT   MOCLDY    32  19  59 NW16      30.13R WCI  21
LORAIN-ELYRIA  CLOUDY    32  21  64 NW5       30.16R WCI  27
ASHTABULA      CLOUDY    27  21  78 N8        30.14R WCI  19
AKRON-CANTON   MOCLDY    28  21  75 NW9       30.13R WCI  19
WOOSTER        PTCLDY    28  18  66 NW9       30.14R WCI  19
MANSFIELD      MOCLDY    28  18  66 NW5       30.14R WCI  23
YOUNGSTOWN     PTCLDY    27  16  63 NW9       30.10R WCI  18
$$

OHZ042-051>053-060>062-070>072-077>081-160200-
  SOUTHWEST OHIO

CITY           SKY/WX    TMP DP  RH WIND       PRES   REMARKS
CINC-COVINGTON PTCLDY    34  17  50 N8        30.20R WCI  27
CINC-LUNKEN    PTCLDY    34  17  50 NW9       30.23R WCI  27
HAMILTON       CLOUDY    36  18  48 NW7       30.22R
DAYTON         PTCLDY    31  18  58 NW9       30.20R WCI  23
WRIGHT-PAT AFB PTCLDY    33  13  44 NW10      30.20R WCI  24
DAYTON GENERAL MOCLDY    33  16  49 NW9       30.19R WCI  25
WILMINGTON     MOCLDY    32  16  51 NW10      30.18R WCI  24
$$

OHZ036-037-039>041-045>050-054>059-063>069-073>076-082>088-160200-
  CENTRAL AND SOUTHEAST OHIO

CITY           SKY/WX    TMP DP  RH WIND       PRES   REMARKS
COLUMBUS       MOCLDY    34  14  43 NW10      30.18R WCI  26
OSU AIRPORT    CLOUDY    31  13  47 NW8       30.18R WCI  23
BOLTON FIELD   CLOUDY    32  18  56 MISG      30.19R
RICKENBACK AFB MOCLDY    34  14  44 NW8       30.19R WCI  28
NEWARK         MOCLDY    30  17  58 NW10      30.17R WCI  21
MARION         MOCLDY    30  18  60 NW7       30.17R WCI  23
LANCASTER      CLOUDY    32  19  58 NW8       30.18R WCI  25
ZANESVILLE     CLOUDY    31  20  63 NW9       30.17R WCI  23
NEW PHILLY     CLOUDY    31  17  56 NW8       30.16R WCI  23
$$



USA.gov is the U.S. government's official web portal to all federal, state and local government web resources and services.